EW1090 Weather Reports


Display with metric or nautical units.
time (UTC)temp
F
wind
direction
speed
MPH
gust
MPH
rain 1hr
in
rain 24hr
in
rain mn
in
humidity
%
barometer
mb
20260903000318 87 173 0.0 1.0 0.00 0.06 0.04 69 1014.3
20260902235812 87 173 0.0 1.0 0.00 0.06 0.04 69 1014.4
20260902235309 87 173 0.0 1.0 0.00 0.06 0.04 69 1014.4
20260902234804 87 173 0.0 0.0 0.00 0.06 0.04 68 1014.3
20260902234321 87 173 0.0 1.0 0.00 0.06 0.04 69 1014.3
20260902233818 87 173 0.0 1.0 0.00 0.06 0.04 68 1014.4
20260902233313 88 173 0.0 0.0 0.00 0.06 0.04 68 1014.5
20260902232809 88 173 0.0 1.0 0.01 0.06 0.04 68 1014.5
20260902232319 88 173 0.0 1.0 0.01 0.06 0.04 68 1014.5
20260902231814 88 173 0.0 1.0 0.01 0.06 0.04 67 1014.5
20260902230817 88 194 0.0 1.0 0.01 0.06 0.04 66 1014.5
20260902225820 89 184 0.0 2.0 0.01 0.06 0.04 65 1014.3
20260902225318 90 184 0.0 2.0 0.01 0.06 0.04 65 1014.3
20260902224813 90 149 0.0 2.0 0.01 0.06 0.04 65 1014.3
20260902224309 90 262 0.0 0.0 0.01 0.06 0.04 64 1014.4
20260902223823 90 310 0.0 0.0 0.01 0.06 0.04 64 1014.4
20260902223334 91 297 0.0 0.0 0.01 0.06 0.04 62 1014.5
20260902222809 91 231 0.0 0.0 0.00 0.05 0.03 63 1014.6
20260902222306 91 188 0.0 0.0 0.00 0.05 0.03 66 1014.6
20260902221821 90 177 0.0 0.0 0.00 0.05 0.03 65 1014.7
20260902221316 90 231 0.0 0.0 0.00 0.05 0.03 66 1014.7
20260902220812 90 150 0.0 0.0 0.00 0.05 0.03 65 1014.7
20260902220307 89 56 0.0 0.0 0.00 0.05 0.03 66 1014.8
20260902215822 89 158 0.0 0.0 0.00 0.05 0.03 68 1014.8
20260902215318 88 153 0.0 0.0 0.00 0.05 0.03 71 1014.8
20260902214813 86 142 0.0 0.0 0.00 0.05 0.03 73 1014.9
20260902214308 85 126 0.0 0.0 0.00 0.05 0.03 76 1015.0
20260902213826 84 126 0.0 0.0 0.00 0.05 0.03 77 1015.1
20260902213323 84 114 0.0 0.0 0.00 0.05 0.03 75 1015.1
20260902212819 84 159 0.0 0.0 0.00 0.05 0.03 77 1015.2
20260902212336 83 152 0.0 1.0 0.00 0.05 0.03 77 1015.1
20260902211810 83 135 0.0 1.0 0.00 0.05 0.03 77 1015.1
20260902211306 83 267 0.0 3.0 0.00 0.05 0.03 79 1015.2
20260902210823 82 267 0.0 3.0 0.00 0.05 0.03 78 1015.2
20260902210318 82 282 0.0 4.0 0.00 0.05 0.03 77 1015.2
20260902205836 82 269 1.0 6.0 0.00 0.05 0.03 78 1015.2
20260902205310 82 219 1.0 6.0 0.00 0.05 0.03 78 1015.3
20260902204806 82 11 0.0 4.0 0.00 0.05 0.03 79 1015.3
20260902204324 82 293 1.0 4.0 0.00 0.05 0.03 80 1015.4
20260902203819 82 229 0.0 8.0 0.00 0.05 0.03 80 1015.6
20260902203316 82 292 2.0 8.0 0.00 0.05 0.03 78 1015.7
20260902202814 84 317 3.0 10.0 0.00 0.05 0.03 75 1015.6
20260902202331 85 248 4.0 10.0 0.00 0.05 0.03 74 1015.8
20260902201806 86 288 2.0 11.0 0.00 0.06 0.03 69 1015.8
20260902201324 87 308 4.0 11.0 0.00 0.06 0.03 67 1015.8
20260902200818 89 199 2.0 7.0 0.00 0.06 0.03 66 1015.5
20260902200312 90 285 2.0 6.0 0.00 0.06 0.03 64 1015.5
20260902195808 91 304 2.0 5.0 0.00 0.06 0.03 62 1015.5
20260902195323 93 321 2.0 9.0 0.00 0.06 0.03 57 1015.5
20260902194819 95 74 3.0 9.0 0.00 0.06 0.03 55 1015.4
20260902194316 96 57 1.0 7.0 0.00 0.06 0.03 52 1015.4
20260902193812 96 61 0.0 0.0 0.00 0.06 0.03 52 1015.4
20260902193306 95 292 0.0 4.0 0.00 0.06 0.03 54 1015.4
20260902192823 95 90 1.0 4.0 0.00 0.06 0.03 52 1015.5
20260902192311 95 82 2.0 8.0 0.00 0.06 0.03 53 1015.5
20260902191808 94 315 0.0 8.0 0.00 0.06 0.03 57 1015.5
20260902191318 94 73 0.0 6.0 0.00 0.06 0.03 60 1015.6
20260902190341 95 33 1.0 5.0 0.00 0.06 0.03 61 1015.7
20260902185816 95 322 0.0 4.0 0.00 0.06 0.03 62 1015.7
20260902185312 95 22 1.0 4.0 0.00 0.06 0.03 62 1015.9
20260902184806 94 14 0.0 4.0 0.01 0.06 0.03 63 1016.1
20260902184321 94 227 1.0 4.0 0.01 0.06 0.03 62 1016.2
20260902183816 93 22 1.0 5.0 0.01 0.06 0.03 62 1016.2
20260902183311 93 16 1.0 7.0 0.01 0.06 0.03 61 1016.4
20260902182807 93 360 2.0 7.0 0.01 0.06 0.03 61 1016.4
20260902182324 93 351 1.0 7.0 0.01 0.06 0.03 63 1016.3
20260902181821 93 355 1.0 4.0 0.01 0.06 0.03 63 1016.3
20260902181315 93 34 1.0 6.0 0.01 0.06 0.03 63 1016.3
20260902180832 92 334 1.0 7.0 0.01 0.06 0.03 64 1016.3
20260902180306 92 49 2.0 7.0 0.01 0.06 0.03 63 1016.2
20260902175822 93 52 0.0 5.0 0.01 0.06 0.03 63 1016.4
20260902175317 93 49 2.0 5.0 0.01 0.06 0.03 63 1016.4
20260902174814 93 302 0.0 7.0 0.00 0.05 0.02 64 1016.4
20260902174311 93 17 0.0 7.0 0.00 0.05 0.02 63 1016.5
20260902173807 93 53 1.0 7.0 0.00 0.05 0.02 64 1016.6
20260902172825 92 339 1.0 6.0 0.00 0.05 0.02 64 1016.9
20260902172319 92 18 2.0 7.0 0.00 0.05 0.02 63 1017.0
20260902171836 92 38 1.0 5.0 0.00 0.05 0.02 64 1017.1
20260902171311 92 297 2.0 6.0 0.00 0.05 0.02 64 1017.2
20260902170807 92 48 2.0 6.0 0.00 0.05 0.02 64 1017.2
20260902170323 92 30 2.0 5.0 0.00 0.05 0.02 63 1017.2
20260902165821 92 337 1.0 5.0 0.00 0.05 0.02 63 1017.2
20260902164816 92 360 2.0 7.0 0.00 0.05 0.02 63 1017.3
20260902164333 92 355 0.0 8.0 0.00 0.05 0.02 64 1017.3
20260902163827 92 55 2.0 8.0 0.00 0.05 0.02 64 1017.3
20260902163324 91 87 0.0 4.0 0.00 0.05 0.02 64 1017.4
20260902162821 91 77 1.0 4.0 0.00 0.05 0.02 65 1017.5
20260902162318 91 360 1.0 4.0 0.00 0.05 0.02 66 1017.5
20260902161814 91 140 1.0 5.0 0.00 0.05 0.02 66 1017.5
20260902161309 91 340 1.0 5.0 0.00 0.05 0.02 68 1017.5
20260902160825 91 99 0.0 6.0 0.00 0.05 0.02 67 1017.5
20260902160337 90 360 1.0 6.0 0.00 0.05 0.02 67 1017.6
20260902155811 91 9 1.0 6.0 0.00 0.05 0.02 67 1017.6
20260902155320 91 76 0.0 5.0 0.00 0.05 0.02 67 1017.6
20260902154816 91 316 0.0 5.0 0.00 0.05 0.02 67 1017.7
20260902154313 91 74 1.0 4.0 0.00 0.05 0.02 67 1017.7
20260902153831 91 348 1.0 4.0 0.00 0.05 0.02 66 1017.6
20260902153305 91 355 0.0 4.0 0.00 0.05 0.02 67 1017.6
20260902152819 90 355 0.0 2.0 0.00 0.05 0.02 68 1017.6
20260902152314 90 114 0.0 1.0 0.00 0.05 0.02 69 1017.6
20260902151810 90 36 0.0 3.0 0.00 0.05 0.02 68 1017.6
20260902151322 89 74 0.0 3.0 0.00 0.05 0.02 70 1017.5
20260902150818 89 78 0.0 3.0 0.00 0.05 0.02 71 1017.5
20260902150315 88 72 0.0 2.0 0.00 0.05 0.02 72 1017.5
20260902145810 88 17 0.0 2.0 0.00 0.05 0.02 72 1017.5
20260902145306 88 67 0.0 0.0 0.00 0.05 0.02 71 1017.5
20260902144822 88 67 0.0 0.0 0.00 0.05 0.02 71 1017.5
20260902144315 88 67 0.0 0.0 0.00 0.05 0.02 70 1017.5
20260902143810 88 68 0.0 0.0 0.00 0.05 0.02 69 1017.5
20260902143307 89 68 0.0 0.0 0.00 0.05 0.02 70 1017.5
20260902142822 89 57 0.0 0.0 0.01 0.05 0.02 71 1017.5
20260902142321 89 73 0.0 0.0 0.01 0.05 0.02 70 1017.4
20260902141839 89 73 0.0 0.0 0.01 0.05 0.02 71 1017.5
20260902141311 88 73 0.0 0.0 0.01 0.05 0.02 71 1017.4
20260902140826 88 73 0.0 0.0 0.01 0.05 0.02 74 1017.5
20260902140341 87 73 0.0 0.0 0.01 0.05 0.02 74 1017.5
20260902135834 87 64 0.0 0.0 0.01 0.05 0.02 74 1017.5
20260902135311 86 64 0.0 0.0 0.01 0.05 0.02 76 1017.6
20260902134807 86 64 0.0 0.0 0.01 0.05 0.02 76 1017.5
20260902134405 86 105 0.0 0.0 0.01 0.05 0.02 77 1017.4
20260902133814 85 106 0.0 0.0 0.01 0.05 0.02 78 1017.3
20260902133308 85 106 0.0 0.0 0.01 0.05 0.02 79 1017.3
20260902132823 84 106 0.0 0.0 0.00 0.04 0.01 80 1017.3
20260902132338 84 106 0.0 0.0 0.00 0.04 0.01 80 1017.2
20260902131832 84 125 0.0 0.0 0.00 0.05 0.01 80 1017.3
20260902131346 83 125 0.0 0.0 0.00 0.05 0.01 81 1017.2
20260902130821 83 125 0.0 0.0 0.00 0.05 0.01 82 1017.2
20260902130317 83 125 0.0 0.0 0.00 0.05 0.01 83 1017.2
20260902125814 82 125 0.0 0.0 0.00 0.05 0.01 83 1017.1
20260902125324 82 125 0.0 0.0 0.00 0.05 0.01 83 1017.0
20260902124819 82 125 0.0 0.0 0.00 0.05 0.01 84 1017.0
20260902124313 82 125 0.0 0.0 0.00 0.05 0.01 84 1016.8
20260902123808 81 125 0.0 0.0 0.00 0.05 0.01 86 1016.8
20260902123318 81 125 0.0 0.0 0.00 0.05 0.01 87 1016.7
20260902122813 80 125 0.0 0.0 0.00 0.05 0.01 89 1016.7
20260902122309 80 125 0.0 0.0 0.00 0.05 0.01 90 1016.7
20260902121851 79 125 0.0 0.0 0.00 0.05 0.01 90 1016.7
20260902121346 79 125 0.0 0.0 0.00 0.05 0.01 90 1016.7
20260902120820 78 125 0.0 0.0 0.00 0.05 0.01 90 1016.7
20260902120335 78 125 0.0 0.0 0.00 0.05 0.01 89 1016.7
20260902115810 78 125 0.0 0.0 0.00 0.05 0.01 89 1016.5
20260902115325 78 125 0.0 0.0 0.00 0.05 0.01 89 1016.5
20260902114836 78 125 0.0 0.0 0.00 0.05 0.01 89 1016.5
20260902114311 78 125 0.0 0.0 0.00 0.05 0.01 89 1016.5
20260902113828 78 125 0.0 0.0 0.00 0.05 0.01 89 1016.4
20260902113343 78 125 0.0 0.0 0.00 0.05 0.01 89 1016.4
20260902112819 78 125 0.0 0.0 0.00 0.05 0.01 88 1016.4
20260902112312 78 125 0.0 0.0 0.00 0.05 0.01 88 1016.3
20260902111806 78 125 0.0 0.0 0.00 0.05 0.01 88 1016.2
20260902111321 78 125 0.0 0.0 0.00 0.05 0.01 88 1016.2
20260902110819 78 125 0.0 0.0 0.00 0.05 0.01 88 1016.2
20260902110334 78 125 0.0 0.0 0.00 0.05 0.01 88 1016.1
20260902105313 78 125 0.0 0.0 0.00 0.05 0.01 88 1016.0
20260902104807 78 125 0.0 0.0 0.00 0.05 0.01 88 1016.0
20260902104322 78 125 0.0 0.0 0.00 0.05 0.01 88 1015.8
20260902103818 78 125 0.0 0.0 0.00 0.05 0.01 87 1015.8
20260902103331 78 125 0.0 0.0 0.00 0.05 0.01 88 1015.8
20260902102807 78 125 0.0 0.0 0.00 0.05 0.01 87 1015.9
20260902102323 78 125 0.0 0.0 0.00 0.05 0.01 87 1015.9
20260902101819 78 125 0.0 0.0 0.00 0.05 0.01 87 1015.9
20260902101316 78 125 0.0 0.0 0.00 0.05 0.01 87 1015.8
20260902100811 78 125 0.0 0.0 0.00 0.05 0.01 87 1015.9
20260902100325 78 125 0.0 0.0 0.00 0.05 0.01 87 1015.8
20260902095819 78 125 0.0 0.0 0.00 0.05 0.01 87 1015.8
20260902095316 78 125 0.0 0.0 0.01 0.05 0.01 87 1015.8
20260902094812 78 125 0.0 0.0 0.01 0.05 0.01 87 1015.8
20260902094308 78 125 0.0 0.0 0.01 0.05 0.01 87 1015.6
20260902093825 78 125 0.0 0.0 0.01 0.05 0.01 87 1015.6
20260902093321 78 125 0.0 0.0 0.01 0.05 0.01 87 1015.5
20260902092817 78 125 0.0 0.0 0.01 0.05 0.01 87 1015.5
20260902092311 78 125 0.0 0.0 0.01 0.05 0.01 87 1015.5
20260902091806 78 125 0.0 0.0 0.01 0.05 0.01 87 1015.4
20260902091322 78 125 0.0 0.0 0.01 0.05 0.01 87 1015.3
20260902090818 78 125 0.0 0.0 0.01 0.05 0.01 87 1015.3
20260902090314 78 125 0.0 0.0 0.01 0.05 0.01 87 1015.2
20260902085832 78 125 0.0 0.0 0.01 0.05 0.01 87 1015.3
20260902085306 78 125 0.0 0.0 0.00 0.04 0.00 87 1015.2
20260902084810 78 125 0.0 0.0 0.00 0.04 0.00 87 1015.2
20260902084320 78 125 0.0 0.0 0.00 0.04 0.00 87 1015.3
20260902083836 78 125 0.0 0.0 0.00 0.04 0.00 86 1015.4
20260902083310 78 125 0.0 0.0 0.00 0.04 0.00 86 1015.4
20260902082807 78 125 0.0 0.0 0.00 0.04 0.00 86 1015.4
20260902082323 78 125 0.0 0.0 0.00 0.04 0.00 86 1015.4
20260902081819 78 125 0.0 0.0 0.00 0.05 0.00 85 1015.4
20260902081317 79 125 0.0 0.0 0.00 0.05 0.00 85 1015.3
20260902080811 79 125 0.0 0.0 0.00 0.05 0.00 85 1015.3
20260902080326 79 125 0.0 0.0 0.00 0.05 0.00 85 1015.3
20260902075822 79 125 0.0 0.0 0.00 0.05 0.00 85 1015.3
20260902075318 79 125 0.0 0.0 0.00 0.05 0.00 85 1015.3
20260902074832 79 125 0.0 0.0 0.00 0.05 0.00 85 1015.3
20260902074328 79 125 0.0 0.0 0.00 0.05 0.00 85 1015.3
20260902073844 79 125 0.0 0.0 0.00 0.05 0.00 85 1015.3
20260902073316 79 125 0.0 0.0 0.00 0.05 0.00 84 1015.3
20260902072809 79 125 0.0 0.0 0.00 0.05 0.00 84 1015.4
20260902072325 79 125 0.0 0.0 0.00 0.05 0.00 84 1015.4
20260902071840 79 125 0.0 0.0 0.00 0.05 0.05 84 1015.5
20260902071314 79 125 0.0 0.0 0.00 0.05 0.05 84 1015.5
20260902070810 79 125 0.0 0.0 0.00 0.05 0.05 84 1015.6
20260902070353 79 125 0.0 0.0 0.00 0.05 0.05 84 1015.6
20260902065847 79 125 0.0 0.0 0.00 0.05 0.05 83 1015.5
20260902065321 79 125 0.0 0.0 0.00 0.05 0.05 83 1015.7
20260902064818 79 125 0.0 0.0 0.00 0.05 0.05 83 1015.7
20260902064314 79 125 0.0 0.0 0.00 0.05 0.05 83 1015.6
20260902063809 79 125 0.0 0.0 0.00 0.05 0.05 83 1015.6
20260902063326 79 125 0.0 0.0 0.00 0.05 0.05 83 1015.6
20260902062820 79 125 0.0 0.0 0.00 0.05 0.05 83 1015.8
20260902062314 79 125 0.0 0.0 0.00 0.05 0.05 83 1015.8
20260902061808 79 125 0.0 0.0 0.00 0.05 0.05 83 1015.7
20260902061320 79 125 0.0 0.0 0.00 0.05 0.05 83 1015.6
20260902060816 79 125 0.0 0.0 0.00 0.05 0.05 83 1015.7
20260902060314 79 125 0.0 0.0 0.00 0.05 0.05 82 1015.8
20260902055822 79 125 0.0 0.0 0.00 0.05 0.05 82 1015.7
20260902055318 80 125 0.0 0.0 0.00 0.05 0.05 82 1015.7
20260902054814 80 125 0.0 0.0 0.00 0.05 0.05 82 1015.7
20260902054322 80 125 0.0 0.0 0.00 0.05 0.05 81 1015.8
20260902053816 80 125 0.0 0.0 0.00 0.05 0.05 81 1015.9
20260902053332 80 125 0.0 0.0 0.00 0.05 0.05 81 1015.9
20260902052807 80 125 0.0 0.0 0.00 0.05 0.05 81 1015.9
20260902052324 80 125 0.0 0.0 0.00 0.05 0.05 81 1015.9
20260902051820 80 125 0.0 0.0 0.00 0.05 0.05 81 1015.9
20260902051315 80 125 0.0 0.0 0.00 0.05 0.05 81 1015.9
20260902050810 80 125 0.0 0.0 0.00 0.05 0.05 81 1015.9
20260902050307 80 125 0.0 0.0 0.00 0.05 0.05 81 1015.8
20260902045824 80 125 0.0 0.0 0.01 0.05 0.05 81 1015.9
20260902045319 80 125 0.0 0.0 0.01 0.05 0.05 81 1015.9
20260902044816 80 125 0.0 0.0 0.01 0.05 0.05 81 1015.9
20260902044313 80 125 0.0 0.0 0.01 0.05 0.05 80 1015.9
20260902043810 81 125 0.0 0.0 0.01 0.05 0.05 80 1015.8
20260902043325 81 125 0.0 0.0 0.01 0.05 0.05 80 1015.8
20260902042343 81 125 0.0 0.0 0.01 0.05 0.05 80 1015.9
20260902041818 81 125 0.0 0.0 0.01 0.05 0.05 80 1015.9
20260902041314 81 125 0.0 0.0 0.01 0.05 0.05 79 1016.0
20260902040823 81 125 0.0 0.0 0.01 0.05 0.05 79 1016.1
20260902040339 82 125 0.0 0.0 0.01 0.05 0.05 79 1016.1
20260902035815 82 125 0.0 0.0 0.00 0.04 0.04 78 1016.1
20260902035312 82 125 0.0 0.0 0.00 0.04 0.04 78 1016.2
20260902034808 82 125 0.0 0.0 0.00 0.04 0.04 78 1016.3
20260902034350 82 125 0.0 2.0 0.00 0.04 0.04 78 1016.3
20260902033845 82 125 0.0 2.0 0.00 0.04 0.04 78 1016.3
20260902033317 82 99 0.0 2.0 0.00 0.04 0.04 78 1016.3
20260902032814 82 99 0.0 2.0 0.00 0.04 0.04 78 1016.4
20260902032310 82 170 0.0 1.0 0.00 0.04 0.04 78 1016.4
20260902031854 82 170 0.0 1.0 0.00 0.05 0.04 78 1016.6
20260902031349 82 170 0.0 3.0 0.00 0.05 0.04 78 1016.5
20260902030845 82 170 1.0 3.0 0.00 0.05 0.04 79 1016.6
20260902030321 82 142 0.0 2.0 0.00 0.05 0.04 79 1016.7
20260902025818 82 142 0.0 0.0 0.00 0.05 0.04 79 1016.6
20260902025333 82 142 0.0 0.0 0.00 0.05 0.04 79 1016.6
20260902024809 82 142 0.0 0.0 0.00 0.05 0.04 79 1016.5
20260902024325 82 142 0.0 0.0 0.00 0.05 0.04 79 1016.5
20260902023842 82 142 0.0 0.0 0.00 0.05 0.04 79 1016.5
20260902023316 82 142 0.0 1.0 0.00 0.05 0.04 79 1016.4
20260902022813 81 142 0.0 3.0 0.00 0.05 0.04 80 1016.3
20260902022329 81 142 0.0 3.0 0.00 0.05 0.04 80 1016.3
20260902021846 81 192 0.0 0.0 0.00 0.05 0.04 80 1016.2
20260902021322 81 192 0.0 0.0 0.00 0.05 0.04 80 1016.1
20260902020818 81 192 0.0 0.0 0.00 0.05 0.04 80 1016.0
20260902020315 81 192 0.0 1.0 0.00 0.05 0.04 80 1016.0
20260902015329 81 192 0.0 0.0 0.00 0.05 0.04 80 1015.9
20260902014824 81 192 0.0 0.0 0.00 0.05 0.04 80 1015.8
20260902014320 81 192 0.0 0.0 0.00 0.05 0.04 80 1015.8
20260902013815 81 192 0.0 0.0 0.00 0.05 0.04 80 1015.7
20260902013310 81 192 0.0 0.0 0.00 0.05 0.04 80 1015.6
20260902012807 81 192 0.0 0.0 0.00 0.05 0.04 79 1015.5
20260902012324 81 192 0.0 0.0 0.00 0.05 0.04 79 1015.5
20260902011822 81 192 0.0 0.0 0.00 0.05 0.04 79 1015.4
20260902011318 81 192 0.0 0.0 0.00 0.05 0.04 78 1015.3
20260902010813 82 192 0.0 0.0 0.00 0.05 0.04 78 1015.3
20260902010308 82 192 0.0 0.0 0.00 0.05 0.04 78 1015.4
20260902005821 82 192 0.0 1.0 0.00 0.05 0.04 78 1015.4
20260902005317 82 192 0.0 1.0 0.00 0.05 0.04 77 1015.3
20260902004813 82 192 0.0 1.0 0.00 0.05 0.04 77 1015.2
20260902004311 82 192 0.0 0.0 0.00 0.05 0.04 77 1015.2
20260902003846 82 192 0.0 0.0 0.01 0.05 0.04 77 1015.2
20260902003321 82 192 0.0 0.0 0.01 0.05 0.04 77 1015.2
20260902002817 82 192 0.0 0.0 0.01 0.05 0.04 76 1015.2
20260902002313 82 192 0.0 0.0 0.01 0.05 0.04 76 1015.1
20260902001810 83 192 0.0 0.0 0.01 0.05 0.04 76 1015.0
20260902001324 83 192 0.0 0.0 0.01 0.05 0.04 76 1015.0
20260902000841 83 192 0.0 0.0 0.01 0.05 0.04 75 1015.0